Track COSMOS 940 now! 10-day predictions COSMOS 940 is classified as:
1 10286U 77079B 21111.81462235 .00000009 00000-0 14536-3 0 9995 2 10286 74.0238 312.1346 0043860 212.9070 158.0306 12.58859970975452